Location: ?????
(31.8092°N, 35.2590°E)
Time: 19:58:33
(UTC+00:00)

Cosmos 2333 - Pass Details

Date: 20 June 2021
Orbit: 832 x 864 km, 70.9° (Epoch: 31 July)

Event Time Altitude Azimuth Distance (km) Brightness Sun altitude
Rises 18:15:38 0° 192° (SSW) 3,426 7.1 -16.2°
Reaches altitude 10° 18:18:06 10° 190° (S) 2,491 6.3 -16.5°
Maximum altitude 18:23:47 69° 108° (ESE) 917 4.1 -17.4°
Drops below altitude 10° 18:29:28 10° 26° (NNE) 2,489 6.9 -18.3°
Sets 18:31:55 0° 24° (NNE) 3,423 7.6 -18.7°
